Satellite: RS-30
Catalog number: 32953
Epoch time:      11055.54337508
Element set:     499
Inclination:      082.4966 deg
RA of node:       232.7454 deg
Eccentricity:    0.0018093
Arg of perigee:   272.7010 deg
Mean anomaly:     087.1997 deg
Mean motion:   12.43010627 rev/day
Decay rate:        1.0e-07 rev/day^2
Epoch rev:           12509
Checksum:              292

Satellite: TACSAT-3
Catalog number: 35001
Epoch time:      11055.61242861
Element set:     512
Inclination:      040.4542 deg
RA of node:       134.4454 deg
Eccentricity:    0.0021377
Arg of perigee:   092.4859 deg
Mean anomaly:     267.8402 deg
Mean motion:   15.45046996 rev/day
Decay rate:      9.225e-05 rev/day^2
Epoch rev:            9964
Checksum:              296

Satellite: PHARMSAT
Catalog number: 35002
Epoch time:      11055.57086067
Element set:     477
Inclination:      040.4680 deg
RA of node:       132.1755 deg
Eccentricity:    0.0023513
Arg of perigee:   096.4554 deg
Mean anomaly:     263.8943 deg
Mean motion:   15.45226919 rev/day
Decay rate:      9.086e-05 rev/day^2
Epoch rev:            9966
Checksum:              312

Satellite: HAWKSAT1
Catalog number: 35003
Epoch time:      11055.59645682
Element set:     523
Inclination:      040.4595 deg
RA of node:       115.4846 deg
Eccentricity:    0.0022844
Arg of perigee:   126.4088 deg
Mean anomaly:     233.8839 deg
Mean motion:   15.52660707 rev/day
Decay rate:     2.4504e-04 rev/day^2
Epoch rev:            9985
Checksum:              312

Satellite: CP6
Catalog number: 35004
Epoch time:      11055.47596947
Element set:     527
Inclination:      040.4605 deg
RA of node:       111.8163 deg
Eccentricity:    0.0021817
Arg of perigee:   133.1705 deg
Mean anomaly:     227.0885 deg
Mean motion:   15.55119280 rev/day
Decay rate:     3.0080e-04 rev/day^2
Epoch rev:            9987
Checksum:              294

Satellite: AEROCUB3
Catalog number: 35005
Epoch time:      11006.09222617
Element set:     610
Inclination:      040.4461 deg
RA of node:       021.7975 deg
Eccentricity:    0.0025578
Arg of perigee:   084.1677 deg
Mean anomaly:     280.7191 deg
Mean motion:   16.39196088 rev/day
Decay rate:  1.4049365e-01 rev/day^2
Epoch rev:            9254
Checksum:              305

Satellite: METEOR-M
Catalog number: 35865
Epoch time:      11055.69786802
Element set:     131
Inclination:      098.7219 deg
RA of node:       112.2101 deg
Eccentricity:    0.0002819
Arg of perigee:   013.3527 deg
Mean anomaly:     346.7676 deg
Mean motion:   14.21834628 rev/day
Decay rate:       1.76e-06 rev/day^2
Epoch rev:            7460
Checksum:              294

Satellite: RS-38
Catalog number: 35869
Epoch time:      11055.71143031
Element set:     142
Inclination:      098.7200 deg
RA of node:       112.2653 deg
Eccentricity:    0.0004844
Arg of perigee:   006.4233 deg
Mean anomaly:     353.6970 deg
Mean motion:   14.22000714 rev/day
Decay rate:       1.77e-06 rev/day^2
Epoch rev:            7461
Checksum:              262

/EX


_______________________________________________
Via the Keps mailing list courtesy of AMSAT-NA
http://amsat.org/mailman/listinfo/keps

--- ViaMAIL!/WC v1.60d
 * Origin: Chowdanet (401-724-4410) telnet://chowdanet.com  (1:323/120)